Monterey, CA

1:49 PM PDT on September 26, 2017 (GMT -0700)
Monterey Peninsula

Weather History for KMRY - April, 2014

Change the Weather History Date:

Thursday, April 3, 2014

  Actual Average Record
Temperature  
Mean Temperature 53 °F 53 °F  
Max Temperature 61 °F 61 °F 68 °F (2004)
Min Temperature 45 °F 46 °F 41 °F (2015)
Degree Days  
Heating Degree Days 12    
Month to date heating degree days 36  
Since 1 July heating degree days 2081  
Cooling Degree Days 0    
Month to date cooling degree days 0  
Year to date cooling degree days 2  
Growing Degree Days 3 (Base 50)    
Moisture  
Dew Point 43 °F    
Average Humidity 70    
Maximum Humidity 83    
Minimum Humidity 57    
Precipitation  
Precipitation 0.00 in - 0.59 in (1998)
Month to date precipitation 0.60  
Year to date precipitation 6.70  
Since 1 July precipitation 7.98  
Sea Level Pressure  
Sea Level Pressure 30.14 in    
Wind  
Wind Speed 7 mph (SSW)    
Max Wind Speed 17 mph    
Max Gust Speed 23 mph    
Visibility 10 miles    
Events      
T = Trace of Precipitation, MM = Missing Value Source: NWS Daily Summary

Daily Weather History Graph

Daily Weather History Graph

Search for Another Location

Airport or City:

Trip Planner

Search our weather history database for the weather conditions in past years. The results will help you decide how hot, cold, wet, or windy it might be!

Date:

Astronomy

Apr. 03, 2014 Rise Set
Actual Time 6:50 AM PDT 7:31 PM PDT
Civil Twilight 6:24 AM PDT 7:57 PM PDT
Nautical Twilight 5:53 AM PDT 8:28 PM PDT
Astronomical Twilight 5:21 AM PDT 9:00 PM PDT
Moon 9:28 AM PDT (4/3) 11:50 PM PDT (4/3)
Length of Visible Light 13h 33m
Length of Day
12h 41m
Waxing Crescent, 18% of the Moon is Illuminated
Apr 3
Waxing Crescent
Apr 7
First Quarter
Apr 15
Full
Apr 22
Last Quarter
Apr 28
New

Hourly Weather History & Observations

Time (PDT) Temp. Windchill Dew Point Humidity Pressure Visibility Wind Dir Wind Speed Gust Speed Precip Events Conditions
12:54 AM 50.0 °F - 41.0 °F 71% 30.15 in 10.0 mi East 3.5 mph - N/A   Clear
1:54 AM 46.9 °F - 39.9 °F 77% 30.15 in 10.0 mi Calm Calm - N/A   Clear
2:54 AM 46.9 °F - 39.9 °F 77% 30.14 in 10.0 mi East 5.8 mph - N/A   Clear
3:54 AM 45.0 °F 42.6 °F 39.0 °F 80% 30.14 in 10.0 mi East 4.6 mph - N/A   Clear
4:54 AM 45.0 °F 41.2 °F 39.0 °F 80% 30.14 in 10.0 mi East 6.9 mph - N/A   Clear
5:54 AM 46.0 °F 43.1 °F 39.0 °F 76% 30.14 in 10.0 mi East 5.8 mph - N/A   Clear
6:54 AM 46.9 °F - 39.0 °F 74% 30.15 in 10.0 mi East 5.8 mph - N/A   Clear
7:54 AM 48.9 °F - 39.9 °F 71% 30.15 in 10.0 mi Calm Calm - N/A   Clear
8:54 AM 54.0 °F - 39.9 °F 59% 30.15 in 10.0 mi Calm Calm - N/A   Clear
9:54 AM 55.0 °F - 44.1 °F 67% 30.17 in 10.0 mi NW 6.9 mph - N/A   Clear
10:54 AM 55.9 °F - 46.0 °F 69% 30.17 in 10.0 mi Variable 5.8 mph - N/A   Clear
11:54 AM 57.9 °F - 46.9 °F 67% 30.16 in 10.0 mi NW 5.8 mph - N/A   Partly Cloudy
12:54 PM 61.0 °F - 46.9 °F 60% 30.16 in 10.0 mi SW 11.5 mph 17.3 mph N/A   Clear
1:54 PM 59.0 °F - 46.9 °F 64% 30.16 in 10.0 mi WSW 11.5 mph - N/A   Scattered Clouds
2:54 PM 60.1 °F - 46.0 °F 60% 30.15 in 10.0 mi WSW 11.5 mph - N/A   Scattered Clouds
3:54 PM 59.0 °F - 45.0 °F 60% 30.13 in 10.0 mi West 10.4 mph - N/A   Scattered Clouds
4:54 PM 59.0 °F - 45.0 °F 60% 30.11 in 10.0 mi WSW 9.2 mph - N/A   Scattered Clouds
5:54 PM 57.9 °F - 44.1 °F 60% 30.10 in 10.0 mi SW 15.0 mph - N/A   Clear
6:54 PM 55.9 °F - 46.0 °F 69% 30.10 in 10.0 mi SW 9.2 mph 19.6 mph N/A   Clear
8:54 PM 54.0 °F - 45.0 °F 72% 30.12 in 10.0 mi SW 8.1 mph - N/A   Clear
9:54 PM 53.1 °F - 44.1 °F 71% 30.12 in 10.0 mi South 6.9 mph - N/A   Clear
10:54 PM 53.1 °F - 43.0 °F 69% 30.12 in 10.0 mi SW 5.8 mph - N/A   Clear
11:54 PM 50.0 °F - 42.1 °F 74% 30.11 in 10.0 mi SSE 3.5 mph - N/A   Clear